WetterOnline ( https://www.wetteronline.ch )

Wetter aktuell Frankfurt am Main

Aktuelles Wetter: Offenbach (119m)

6-stündlich | Neueste Meldungen
Ortszeit Temperatur Wetter
Fr, 10.07. 2:00 19.0° C bedeckt
Do, 09.07. 20:00 28.4° C wolkig
Do, 09.07. 14:00 25.8° C wolkig
Do, 09.07. 8:00 16.8° C bedeckt
Do, 09.07. 2:00 15.4° C bedeckt
Mi, 08.07. 20:00 15.8° C Sprühregen
Mi, 08.07. 14:00 15.0° C leichter Regen
Mi, 08.07. 8:00 14.0° C leichter Regen
Ortszeit Temperatur Wetter
Fr, 10.07. 2:30 19.5° C bedeckt
Fr, 10.07. 2:20 19.5° C bedeckt
Fr, 10.07. 2:10 18.9° C bedeckt
Fr, 10.07. 2:00 19.0° C bedeckt
Fr, 10.07. 1:50 19.0° C bedeckt
Fr, 10.07. 1:40 19.3° C bedeckt
Fr, 10.07. 1:30 19.7° C bedeckt
Fr, 10.07. 1:00 20.0° C bedeckt
Fr, 10.07. 0:30 20.3° C bedeckt
Fr, 10.07. 0:00 20.4° C bedeckt
Do, 09.07. 23:30 20.1° C bewölkt
Ortszeit Relative Feuchte Sichtweite
Fr, 10.07. 2:00 80% 55 km
Do, 09.07. 20:00 36% 45 km
Do, 09.07. 14:00 49% 60 km
Do, 09.07. 8:00 90% 45 km
Do, 09.07. 2:00 98% 23 km
Mi, 08.07. 20:00 94% 21 km
Mi, 08.07. 14:00 88% 18 km
Mi, 08.07. 8:00 87% 35 km
Ortszeit Relative Feuchte Sichtweite
Fr, 10.07. 2:30 75% 65 km
Fr, 10.07. 2:20 75% -
Fr, 10.07. 2:10 81% -
Fr, 10.07. 2:00 80% 55 km
Fr, 10.07. 1:50 80% -
Fr, 10.07. 1:40 79% -
Fr, 10.07. 1:30 75% 50 km
Fr, 10.07. 1:00 74% 55 km
Fr, 10.07. 0:30 72% 65 km
Fr, 10.07. 0:00 70% 55 km
Do, 09.07. 23:30 68% 65 km
Ortszeit Niederschlagsmenge Niederschlagsart
Fr, 10.07. 2:00 0.0 l/m2 in 6 Std. -
Do, 09.07. 20:00 0.0 l/m2 in 12 Std. -
Do, 09.07. 14:00 0.0 l/m2 in 6 Std. -
Do, 09.07. 8:00 0.2 l/m2 in 12 Std. -
Do, 09.07. 2:00 0.2 l/m2 in 6 Std. Regen
Mi, 08.07. 20:00 4 l/m2 in 12 Std. Regen
Mi, 08.07. 14:00 2 l/m2 in 6 Std. Regen
Mi, 08.07. 8:00 0.6 l/m2 in 12 Std. Regen
Ortszeit Niederschlagsmenge Niederschlagsart
Fr, 10.07. 2:30 0.0 l/m2 in 1 Std. -
Fr, 10.07. 2:20 keine Meldung -
Fr, 10.07. 2:10 keine Meldung -
Fr, 10.07. 2:00 0.0 l/m2 in 1 Std. -
Fr, 10.07. 1:50 keine Meldung -
Fr, 10.07. 1:40 keine Meldung -
Fr, 10.07. 1:30 0.0 l/m2 in 1 Std. -
Fr, 10.07. 1:00 0.0 l/m2 in 1 Std. -
Fr, 10.07. 0:30 0.0 l/m2 in 1 Std. -
Fr, 10.07. 0:00 0.0 l/m2 in 1 Std. -
Do, 09.07. 23:30 0.0 l/m2 in 1 Std. -
Ortszeit Stärke Spitze Richtung
km/h Bft. km/h Grad Sektor
Fr, 10.07. 2:00 2 1 28 190° S
Do, 09.07. 20:00 18 3 43 270° W
Do, 09.07. 14:00 15 3 35 250° W
Do, 09.07. 8:00 4 1 11 220° SW
Do, 09.07. 2:00 4 1 11 150° SO
Mi, 08.07. 20:00 6 1 9 170° S
Mi, 08.07. 14:00 4 1 18 330° NW
Mi, 08.07. 8:00 6 1 7 170° S
Ortszeit Stärke Spitze Richtung
km/h Bft. km/h Grad Sektor
Fr, 10.07. 2:30 6 1 9 130° SO
Fr, 10.07. 2:20 6 1 - 130° SO
Fr, 10.07. 2:10 4 1 - 140° SO
Fr, 10.07. 2:00 2 1 6 190° S
Fr, 10.07. 1:50 2 1 - 190° S
Fr, 10.07. 1:40 4 1 - 210° SW
Fr, 10.07. 1:30 4 1 7 130° SO
Fr, 10.07. 1:00 4 1 11 100° O
Fr, 10.07. 0:30 7 2 11 50° NO
Fr, 10.07. 0:00 4 1 11 40° NO
Do, 09.07. 23:30 0 0 4 - -
Ortszeit Untergrenze Bedeckung Gattung
total tief tief mittel hoch
Fr, 10.07. 2:00 3300 m 8/8 8/8 - - -
Do, 09.07. 20:00 3900 m 6/8 6/8 - - -
Do, 09.07. 14:00 1500 m 8/8 1/8 - - -
Do, 09.07. 8:00 840 m 8/8 8/8 - - -
Do, 09.07. 2:00 510 m 8/8 8/8 - - -
Mi, 08.07. 20:00 630 m 7/8 7/8 - - -
Mi, 08.07. 14:00 240 m 8/8 8/8 - - -
Mi, 08.07. 8:00 1500 m 8/8 8/8 - - -
Ortszeit Bedeckungsgrad in Achtel und Wolkenuntergrenze
Fr, 10.07. 2:30 8(3300m) 8(6600m)
Fr, 10.07. 2:20 8(3300m) 8(6600m)
Fr, 10.07. 2:10 8(3300m) 8(3900m)
Fr, 10.07. 2:00 7(3300m) 8(3900m) 8(8700m)
Fr, 10.07. 1:50 7(3300m) 8(3900m) 8(8700m)
Fr, 10.07. 1:40 7(3300m) 8(3900m) 8(8700m)
Fr, 10.07. 1:30 8(3300m) 8(4200m) 8(8700m)
Fr, 10.07. 1:00 7(3000m) 8(3900m)
Fr, 10.07. 0:30 5(3300m) 8(3900m) 8(8400m)
Fr, 10.07. 0:00 8(3900m) 8(7800m) 8(8400m)
Do, 09.07. 23:30 6(3900m) 8(8400m) 8(10500m)
Ortszeit Luftdruck NN (hPa) Tendenz (hPa in 3 Std.)
Fr, 10.07. 2:00 1011 - 1,0
Do, 09.07. 20:00 1011 - 0,8
Do, 09.07. 14:00 1014 - 1,2
Do, 09.07. 8:00 1016 0,0
Do, 09.07. 2:00 1017 - 0,7
Mi, 08.07. 20:00 1017 - 0,2
Mi, 08.07. 14:00 1017 + 0,4
Mi, 08.07. 8:00 1016 + 0,3
Ortszeit Luftdruck NN (hPa) Tendenz (hPa in 3 Std.)
Fr, 10.07. 2:30 1011 - 1,5
Fr, 10.07. 2:20 1011 keine Meldung
Fr, 10.07. 2:10 1011 keine Meldung
Fr, 10.07. 2:00 1011 - 1,0
Fr, 10.07. 1:50 1011 keine Meldung
Fr, 10.07. 1:40 1011 keine Meldung
Fr, 10.07. 1:30 1011 - 0,6
Fr, 10.07. 1:00 1012 - 0,1
Fr, 10.07. 0:30 1012 + 0,3
Fr, 10.07. 0:00 1012 + 0,7
Do, 09.07. 23:30 1012 + 0,7
Ortszeit Schneehöhe (cm)
Fr, 10.07. 2:00 -
Do, 09.07. 20:00 -
Do, 09.07. 14:00 -
Do, 09.07. 8:00 -
Do, 09.07. 2:00 -
Mi, 08.07. 20:00 -
Mi, 08.07. 14:00 -
Mi, 08.07. 8:00 -
Ortszeit Schneehöhe (cm)
Fr, 10.07. 2:30 -
Fr, 10.07. 2:20 -
Fr, 10.07. 2:10 -
Fr, 10.07. 2:00 -
Fr, 10.07. 1:50 -
Fr, 10.07. 1:40 -
Fr, 10.07. 1:30 -
Fr, 10.07. 1:00 -
Fr, 10.07. 0:30 -
Fr, 10.07. 0:00 -
Do, 09.07. 23:30 -
Link zu dieser Seite / Seite empfehlen

Das Wetter in ...